Wind_Speed
26 23 24 24 20 18 10 10 11 10 9 8 9 7 5 7 15 11 7 3 4 6 6 11 14 10 21 16 10 10 7 9 10 9 9 8 7 6 5 5 4 3 1 5 7 14 16
28 29 30 30 29 26 10 5 9 9 7 7 8 7 3 5 9 5 8 5 1 3 7 10 8 20 18 14 12 7 7 8 10 7 9 6 6 11 9 4 4 1 4 10 8 10 8
35 35 34 32 29 28 4 7 9 10 9 8 7 7 3 1 4 3 8 4 3 6 9 8 18 26 22 14 11 7 7 11 9 8 11 12 9 3 5 4 4 1 5 5 3 6 4
32 33 32 31 30 26 15 14 10 11 9 8 7 8 3 0 4 5 6 4 7 8 12 6 25 29 13 18 16 9 8 13 10 11 10 11 9 10 6 5 5 4 4 5 1 6 2
32 34 30 29 34 25 22 15 13 12 9 9 9 7 5 3 5 5 5 6 13 12 17 15 19 27 12 18 14 11 6 11 9 10 11 8 5 6 4 4 3 7 1 2 7 2 2
30 32 29 29 27 26 21 19 15 13 13 13 12 10 11 8 8 9 7 21 21 18 21 19 23 15 12 12 12 11 9 7 8 6 7 6 6 3 3 4 2 1 1 3 5 3 3
28 29 27 28 25 23 19 18 17 18 18 16 13 11 14 8 15 23 31 32 22 13 16 7 15 24 19 15 13 10 9 9 8 8 4 6 6 3 2 3 4 4 1 3 5 6 4
28 28 25 28 24 20 19 19 19 19 18 17 14 12 9 14 19 20 10 17 12 14 26 31 33 27 19 12 11 9 5 3 6 4 1 5 3 2 5 4 3 2 2 5 9 7 5
30 28 26 25 24 21 19 21 22 20 19 20 15 11 15 14 17 14 24 19 21 17 10 15 18 13 7 10 6 4 5 4 4 4 4 3 3 6 1 1 1 2 3 3 6 7 9
33 31 30 28 29 27 24 24 23 23 23 23 18 7 7 19 23 27 22 25 16 6 5 8 7 6 5 9 6 4 5 3 4 2 2 2 1 2 2 3 5 3 8 7 6 6 4
33 32 32 32 32 31 30 28 25 24 24 24 19 16 9 9 28 24 22 11 1 0 6 6 4 4 8 7 9 1 4 3 3 2 5 2 2 2 3 5 6 3 4 6 8 6 4
28 30 28 28 27 26 26 26 25 25 25 25 24 18 25 24 28 23 6 1 2 6 6 3 3 2 4 6 3 3 2 3 3 3 3 4 1 3 4 2 5 4 3 2 2 2 2
25 26 26 26 24 23 22 23 23 21 20 22 21 18 20 20 17 9 4 5 5 6 1 2 2 1 3 3 4 2 3 4 3 4 5 4 2 2 3 2 2 2 3 3 4 2 4
23 24 23 23 24 24 23 22 19 13 14 17 23 17 7 6 5 7 7 6 11 2 4 1 2 4 4 0 3 2 2 2 3 2 2 2 3 5 5 4 2 1 1 2 4 3 5
22 23 24 24 23 25 25 23 21 18 11 9 10 19 18 6 1 1 5 7 2 2 3 4 2 3 4 2 3 1 4 3 4 6 4 3 4 2 4 3 2 1 1 0 3 1 3
19 21 22 24 25 25 26 25 22 19 14 11 9 14 22 13 11 7 6 7 3 1 4 2 2 1 3 2 1 2 1 3 2 4 1 0 4 2 1 2 2 4 2 2 0 3 4
17 18 20 21 22 24 24 25 23 16 12 12 10 7 18 11 16 13 4 3 3 3 2 2 3 2 1 2 3 1 2 2 1 2 1 1 2 5 2 4 5 1 2 1 1 2 2
19 17 17 18 20 22 24 23 23 16 12 14 11 4 10 9 8 4 3 2 1 1 2 1 2 2 4 3 1 0 1 3 4 5 1 1 2 5 7 1 2 0 3 4 2 3 3
20 20 18 15 16 18 21 23 22 18 11 6 6 7 16 6 4 2 1 2 2 3 3 3 3 3 2 2 3 1 1 2 9 5 3 3 1 5 7 4 1 3 3 3 3 2 5
20 19 19 18 15 15 18 20 22 16 15 7 2 3 8 13 8 5 3 2 2 4 3 2 1 3 3 3 1 3 2 1 8 7 4 5 3 6 5 6 2 5 5 4 4 2 2
21 19 18 18 19 17 16 18 20 16 11 7 5 3 3 1 4 4 2 2 1 2 2 5 3 4 1 1 2 2 1 3 3 3 3 4 4 5 7 14 8 14 15 8 8 7 5
19 21 19 18 18 17 17 17 18 16 10 9 3 2 4 4 3 2 2 3 4 3 4 1 4 2 4 4 5 4 3 4 4 1 4 1 4 2 6 6 5 7 11 12 14 8 9
15 18 20 18 17 17 16 17 17 17 11 7 6 6 2 1 2 2 2 2 4 1 4 3 4 2 3 7 13 14 14 9 7 7 5 5 2 2 5 4 9 6 5 7 5 5 6
14 14 17 18 16 16 15 15 14 15 11 8 6 4 2 2 1 3 1 1 2 4 4 4 4 1 3 5 12 12 12 15 12 11 10 5 3 1 4 6 4 5 3 5 7 6 8
18 13 12 16 17 15 14 13 12 10 10 6 2 2 1 0 3 4 4 3 3 4 3 4 6 6 9 8 3 5 3 2 2 5 7 8 3 3 2 2 7 2 2 3 3 6 4
19 18 13 12 15 17 14 13 11 9 6 6 5 2 1 2 4 4 2 3 3 2 4 4 4 6 3 3 2 3 3 2 2 0 7 5 2 2 1 2 5 4 2 5 5 4 3
20 19 17 11 11 15 15 14 11 9 8 6 5 4 2 4 5 6 5 4 4 2 2 4 2 2 2 2 1 3 4 2 3 3 4 2 2 6 4 3 8 6 3 3 2 5 3
18 20 21 16 10 12 14 14 13 10 8 8 7 8 6 5 10 12 11 9 7 6 4 1 3 1 2 1 2 2 2 3 2 4 5 7 5 4 2 3 7 7 5 5 4 3 5
19 19 22 20 17 10 12 14 13 12 9 8 8 7 9 10 9 11 16 19 18 16 8 7 3 3 6 3 2 1 3 1 3 4 1 4 6 3 8 6 5 13 11 9 8 12 15
Wind_Direction
360 350 339 331 327 318 315 329 335 336 332 325 323 325 299 263 281 220 258 269 249 223 164 142 172 178 149 84 92 114 141 124 132 136 138 136 127 117 112 110 108 81 342 279 272 284 280
357 345 334 329 318 300 261 334 348 345 346 340 336 326 298 260 295 203 242 264 345 159 172 179 196 164 131 82 111 127 114 106 106 121 118 117 110 105 98 79 71 7 277 284 292 306 292
353 348 347 345 338 331 260 79 6 358 357 347 338 339 337 300 306 221 249 256 182 134 140 156 163 144 122 110 110 124 116 100 100 92 106 96 99 107 98 92 60 14 348 335 14 360 316
4 3 5 6 21 28 86 71 27 8 10 348 339 343 72 292 286 282 261 232 175 136 144 135 124 129 94 111 112 113 108 96 91 96 99 94 96 92 66 107 39 46 49 359 67 327 3
16 16 22 30 40 56 64 52 36 23 28 23 41 49 65 35 344 317 273 181 139 131 143 150 139 111 106 120 114 98 71 96 85 85 87 94 101 77 74 72 35 16 45 328 313 346 307
22 23 33 45 53 60 50 47 41 44 41 45 43 47 46 57 72 28 139 141 127 128 129 117 109 91 113 111 120 104 89 76 88 83 79 62 56 74 43 54 211 330 10 286 265 308 11
32 33 39 43 57 55 53 51 46 48 47 45 45 53 42 75 87 100 108 121 107 79 83 96 102 93 126 127 125 112 97 87 69 55 58 30 66 71 111 109 128 125 121 271 255 275 288
42 38 42 45 53 50 49 48 43 38 33 32 41 51 49 64 100 129 111 105 92 110 72 85 93 107 122 123 112 108 51 87 53 71 47 35 90 158 117 128 104 98 354 280 293 259 251
44 42 40 44 50 52 47 41 35 31 33 40 52 60 63 89 105 115 130 119 106 104 86 48 74 84 75 115 85 88 38 71 89 59 51 102 142 142 152 164 91 236 188 230 243 303 266
45 46 46 51 52 51 54 47 40 42 39 35 47 33 58 103 119 118 133 119 122 124 90 19 27 46 58 118 58 86 34 64 51 82 84 103 120 160 206 273 141 263 205 236 275 331 316
49 45 48 51 53 55 49 46 45 39 39 42 49 50 77 123 127 143 135 154 137 148 74 5 8 63 76 89 133 46 19 32 77 93 71 266 173 175 242 218 180 232 180 240 276 264 312
41 43 39 44 46 46 45 43 40 42 46 56 54 73 97 116 128 134 129 119 328 44 61 23 340 10 60 41 53 130 33 49 53 53 19 237 183 205 226 233 203 329 306 8 94 53 274
38 33 38 32 35 39 39 38 39 49 53 56 59 70 110 106 111 142 359 336 46 56 262 17 70 323 92 38 37 45 27 14 61 54 358 329 232 252 201 235 161 211 290 338 359 7 242
39 36 30 34 25 25 26 29 33 35 56 64 62 62 78 82 23 10 3 55 61 328 55 60 92 91 63 110 29 32 68 359 290 152 110 92 316 188 173 222 161 246 67 337 305 323 297
31 38 34 30 29 20 14 14 15 23 45 69 57 46 36 22 18 98 60 53 129 122 125 128 33 80 356 88 133 197 211 218 187 184 133 27 287 279 184 179 155 50 261 55 267 71 292
22 25 32 29 27 27 19 17 18 28 57 69 51 47 30 45 78 85 73 96 104 186 128 160 132 216 155 214 184 263 263 226 198 178 116 37 305 231 352 125 249 185 236 65 186 314 295
15 13 17 23 26 23 25 18 17 25 54 75 65 58 17 50 54 54 70 88 99 161 134 152 144 111 107 199 183 237 316 276 261 98 92 36 69 293 10 201 182 117 272 212 305 184 235
11 8 4 10 15 21 18 19 17 22 57 68 58 54 29 56 55 36 50 356 75 359 292 219 164 144 167 176 170 150 252 234 173 143 83 257 335 286 247 335 11 285 228 137 141 246 233
12 8 6 2 6 12 18 14 15 14 15 52 68 70 42 133 89 5 29 62 83 40 36 15 45 39 171 156 30 244 240 351 173 156 161 176 306 306 345 12 92 210 222 164 97 65 225
12 11 6 5 3 2 4 11 13 12 14 33 32 53 46 60 92 122 127 23 88 41 94 95 33 88 52 37 194 338 318 37 190 196 196 170 199 196 209 223 192 268 201 214 157 177 223
2 11 10 5 2 7 7 7 12 13 14 31 45 50 58 352 17 105 116 118 85 34 17 33 81 81 118 25 344 243 259 303 202 230 184 159 247 196 248 258 254 257 253 202 197 214 199
354 357 6 5 3 6 10 11 14 19 22 50 68 87 72 56 7 2 357 201 173 208 182 241 131 187 169 193 194 224 180 204 224 143 167 160 273 335 283 259 228 253 238 232 225 228 244
351 349 353 2 0 2 9 14 13 24 30 67 67 78 38 35 37 28 278 228 245 226 235 218 182 160 226 232 218 232 226 217 189 169 185 175 192 14 265 317 311 306 238 206 213 204 178
343 344 345 350 357 356 360 11 15 18 38 64 65 46 21 305 102 178 353 337 314 303 318 313 242 211 310 286 290 271 260 256 242 231 208 169 150 163 278 330 357 233 196 201 215 243 227
339 341 339 339 346 351 353 355 8 11 18 25 29 55 67 221 239 283 223 201 295 291 269 277 272 274 317 322 333 319 314 318 244 225 207 199 156 242 232 214 282 292 157 188 196 288 224
336 337 339 331 334 340 347 349 348 357 353 359 4 360 271 144 246 224 196 225 204 208 318 240 266 267 301 57 24 290 271 308 338 230 41 111 28 178 101 289 268 237 203 171 135 292 263
335 336 339 331 322 328 336 341 341 341 335 326 309 313 286 262 253 208 200 193 180 168 218 276 261 218 197 105 229 228 270 212 279 251 185 175 197 222 222 258 280 240 208 136 87 237 216
326 333 338 336 319 315 325 332 333 331 323 315 304 286 278 264 266 252 242 218 207 194 162 233 354 256 79 166 183 244 222 258 291 242 195 187 168 208 140 207 278 165 115 181 227 304 286
311 320 327 332 328 302 313 323 326 327 313 312 313 297 276 266 270 261 261 262 256 251 227 210 206 177 206 121 204 165 245 222 190 272 241 267 197 195 186 220 246 203 227 234 268 274 274
Height
1497 1492 1487 1483 1478 1473 1470 1469 1468 1468 1467 1468 1466 1465 1464 1467 1468 1470 1472 1473 1473 1476 1481 1485 1483 1484 1490 1495 1505 1507 1508 1509 1509 1510 1512 1514 1515 1517 1523 1526 1527 1528 1532 1531 1530 1530 1530
1496 1490 1484 1478 1472 1465 1457 1464 1466 1466 1466 1466 1465 1465 1462 1464 1465 1466 1470 1472 1472 1473 1477 1482 1480 1483 1489 1498 1506 1508 1508 1509 1510 1510 1513 1515 1516 1517 1521 1527 1527 1530 1532 1529 1527 1527 1527
1494 1487 1480 1474 1467 1460 1454 1458 1465 1465 1464 1465 1465 1464 1463 1464 1464 1466 1469 1471 1472 1473 1476 1482 1483 1484 1491 1502 1507 1509 1510 1510 1511 1512 1513 1515 1517 1519 1522 1527 1528 1530 1530 1526 1526 1526 1526
1494 1487 1480 1472 1464 1456 1458 1463 1464 1465 1465 1465 1465 1463 1463 1464 1464 1466 1467 1470 1471 1473 1475 1478 1481 1486 1496 1503 1507 1511 1511 1511 1513 1513 1514 1517 1518 1519 1523 1528 1530 1534 1534 1531 1529 1527 1525
1494 1488 1481 1475 1468 1467 1469 1470 1469 1468 1467 1467 1465 1464 1464 1464 1464 1464 1464 1467 1471 1474 1477 1481 1484 1486 1502 1507 1510 1512 1513 1513 1515 1515 1516 1518 1519 1523 1528 1532 1537 1540 1535 1540 1531 1527 1526
1496 1491 1485 1479 1476 1474 1474 1474 1473 1472 1471 1469 1468 1466 1465 1464 1464 1461 1459 1465 1472 1476 1478 1484 1485 1490 1506 1508 1512 1514 1516 1516 1517 1518 1518 1519 1522 1528 1534 1536 1543 1538 1542 1542 1539 1528 1527
1499 1495 1489 1485 1481 1480 1477 1476 1475 1474 1472 1472 1471 1469 1467 1465 1466 1466 1465 1470 1479 1483 1487 1491 1494 1496 1507 1514 1516 1518 1518 1519 1519 1520 1522 1524 1531 1538 1536 1538 1540 1544 1547 1548 1536 1530 1531
1504 1499 1495 1490 1487 1484 1481 1480 1478 1477 1475 1474 1473 1471 1468 1466 1467 1471 1472 1474 1480 1485 1491 1497 1499 1509 1515 1517 1519 1520 1521 1522 1521 1525 1525 1529 1538 1535 1536 1538 1539 1544 1547 1545 1533 1530 1528
1510 1504 1499 1495 1491 1488 1485 1483 1482 1481 1478 1476 1477 1472 1471 1470 1470 1475 1477 1480 1484 1486 1496 1507 1512 1516 1518 1520 1521 1523 1524 1523 1524 1526 1529 1532 1533 1534 1535 1538 1541 1544 1546 1543 1538 1529 1520
1516 1509 1504 1500 1497 1493 1490 1487 1485 1484 1481 1479 1479 1473 1473 1473 1478 1480 1485 1483 1486 1487 1499 1519 1519 1521 1521 1521 1524 1525 1525 1525 1525 1529 1530 1532 1532 1534 1536 1537 1540 1545 1535 1535 1533 1530 1521
1521 1517 1510 1505 1502 1499 1496 1493 1490 1488 1485 1482 1479 1476 1474 1478 1480 1483 1489 1487 1486 1488 1514 1525 1523 1523 1523 1522 1526 1526 1525 1525 1527 1528 1531 1534 1533 1535 1536 1536 1536 1529 1530 1529 1526 1527 1525
1527 1522 1518 1513 1508 1504 1500 1497 1494 1491 1489 1487 1486 1485 1483 1486 1487 1488 1489 1489 1489 1502 1523 1526 1525 1523 1523 1523 1525 1526 1526 1526 1527 1529 1531 1533 1533 1533 1531 1530 1530 1528 1526 1524 1525 1526 1530
1531 1527 1522 1519 1514 1510 1505 1501 1498 1495 1493 1492 1492 1492 1492 1492 1494 1493 1492 1491 1504 1511 1531 1530 1527 1524 1522 1527 1526 1526 1527 1528 1533 1541 1548 1535 1531 1529 1529 1530 1530 1527 1523 1523 1533 1538 1514
1533 1530 1527 1522 1519 1515 1510 1506 1502 1499 1498 1497 1495 1496 1496 1495 1494 1493 1491 1494 1519 1525 1525 1527 1525 1524 1527 1528 1529 1530 1532 1538 1532 1533 1546 1548 1539 1527 1525 1524 1522 1522 1522 1521 1520 1528 1517
1537 1532 1529 1526 1521 1518 1513 1508 1505 1502 1499 1498 1498 1498 1496 1495 1493 1493 1493 1510 1528 1523 1525 1527 1529 1530 1534 1528 1531 1532 1533 1532 1528 1531 1537 1535 1535 1520 1521 1520 1521 1520 1521 1520 1519 1520 1518
1539 1536 1532 1527 1524 1520 1516 1512 1508 1504 1502 1501 1500 1498 1498 1497 1495 1496 1499 1518 1526 1524 1525 1526 1527 1529 1532 1531 1533 1533 1531 1527 1526 1527 1526 1530 1530 1519 1518 1518 1519 1520 1522 1524 1520 1517 1520
1540 1537 1534 1531 1526 1523 1519 1516 1512 1507 1504 1502 1501 1500 1503 1502 1501 1501 1518 1525 1524 1524 1525 1526 1527 1529 1529 1530 1530 1531 1529 1527 1525 1528 1527 1527 1530 1524 1519 1519 1516 1522 1521 1521 1521 1521 1518
1541 1538 1535 1532 1529 1525 1522 1517 1515 1511 1506 1506 1503 1506 1507 1503 1507 1516 1525 1525 1524 1525 1524 1525 1526 1526 1528 1529 1528 1529 1528 1527 1525 1526 1528 1530 1531 1527 1521 1514 1514 1514 1514 1519 1523 1520 1521
1543 1539 1535 1532 1529 1527 1523 1519 1516 1513 1511 1508 1507 1508 1509 1507 1522 1528 1524 1525 1525 1525 1525 1524 1524 1524 1525 1527 1527 1528 1526 1524 1524 1526 1528 1530 1534 1536 1523 1518 1516 1515 1514 1515 1520 1525 1518
1545 1541 1537 1533 1530 1527 1524 1520 1517 1514 1512 1510 1510 1514 1513 1511 1516 1519 1523 1526 1524 1523 1524 1523 1524 1523 1524 1526 1528 1528 1525 1524 1524 1524 1526 1527 1533 1531 1532 1515 1514 1513 1513 1513 1516 1525 1511
1546 1543 1539 1535 1531 1527 1524 1521 1517 1515 1513 1513 1513 1518 1519 1524 1520 1520 1520 1523 1524 1524 1521 1521 1524 1526 1527 1526 1526 1526 1525 1523 1523 1522 1525 1527 1529 1530 1521 1514 1513 1508 1505 1509 1511 1505 1505
1546 1543 1540 1537 1533 1529 1525 1522 1519 1516 1514 1514 1516 1519 1521 1521 1522 1523 1522 1524 1522 1521 1519 1520 1521 1522 1523 1523 1522 1522 1522 1523 1522 1523 1525 1527 1528 1525 1525 1507 1507 1505 1500 1500 1499 1497 1497
1547 1543 1540 1538 1535 1531 1527 1524 1521 1518 1516 1516 1519 1520 1521 1523 1523 1526 1526 1524 1523 1522 1519 1519 1519 1520 1521 1516 1513 1512 1512 1513 1514 1517 1520 1522 1525 1529 1520 1509 1506 1497 1486 1490 1486 1485 1483
1546 1543 1540 1537 1536 1533 1529 1526 1523 1521 1519 1519 1519 1520 1521 1525 1523 1524 1523 1524 1525 1526 1526 1522 1523 1522 1519 1516 1514 1512 1511 1512 1514 1513 1514 1519 1522 1527 1521 1508 1509 1480 1479 1480 1480 1476 1476
1543 1542 1540 1537 1535 1533 1531 1528 1525 1523 1522 1521 1520 1520 1520 1522 1522 1521 1520 1521 1522 1523 1525 1524 1522 1522 1520 1519 1519 1513 1512 1510 1510 1511 1511 1514 1515 1519 1521 1521 1489 1469 1474 1476 1476 1472 1467
1540 1539 1538 1537 1534 1532 1531 1529 1526 1524 1523 1522 1522 1521 1520 1520 1519 1518 1518 1519 1520 1520 1521 1519 1519 1519 1519 1520 1523 1516 1514 1510 1508 1509 1512 1513 1516 1518 1525 1519 1492 1471 1470 1469 1471 1478 1465
1539 1536 1535 1535 1533 1531 1529 1529 1527 1524 1523 1522 1522 1522 1520 1519 1515 1515 1516 1516 1517 1518 1520 1516 1515 1516 1517 1521 1521 1523 1523 1515 1513 1507 1513 1514 1517 1515 1515 1517 1494 1472 1472 1473 1473 1471 1460
1537 1534 1533 1532 1531 1529 1528 1527 1526 1524 1521 1521 1520 1520 1520 1517 1513 1512 1512 1512 1513 1514 1516 1515 1517 1515 1517 1519 1521 1520 1522 1517 1515 1508 1505 1506 1512 1513 1515 1512 1500 1469 1473 1473 1467 1462 1462
1535 1533 1531 1530 1529 1527 1526 1525 1524 1523 1521 1519 1518 1517 1517 1516 1511 1508 1506 1507 1508 1509 1511 1511 1510 1510 1511 1516 1518 1518 1515 1519 1514 1509 1500 1503 1491 1492 1494 1483 1466 1465 1459 1459 1458 1458 1457